Wind_Speed
33 31 29 31 31 28 27 29 31 23 21 18 12 10 12 14 14 17 19 20 16 15
33 32 31 29 32 31 31 31 30 23 19 16 13 11 8 13 13 16 16 17 18 18
33 32 31 29 33 33 34 34 29 29 21 16 13 11 9 9 8 10 14 13 15 16
33 33 34 31 33 34 34 35 34 27 27 21 15 10 9 8 7 7 6 11 13 14
34 33 33 34 32 33 34 35 35 33 27 23 19 12 8 8 6 7 7 9 8 10
33 34 32 33 34 34 33 35 35 37 32 25 18 12 10 9 6 6 7 6 7 8
33 32 33 34 36 35 34 33 36 38 35 33 24 19 12 10 7 5 6 7 9 10
32 32 34 35 35 36 36 35 35 38 38 37 35 22 7 6 4 3 4 3 7 5
32 32 33 34 37 36 35 37 36 38 38 32 39 40 23 12 15 12 8 8 8 6
33 32 33 32 33 36 35 35 38 37 39 33 37 37 35 32 33 27 23 17 14 10
34 33 33 32 29 29 32 34 34 36 38 35 33 35 32 31 30 22 21 22 22 21
31 32 33 32 28 26 26 29 33 35 36 35 33 31 31 30 32 31 32 23 22 24
27 28 28 30 31 28 23 25 25 29 35 31 32 31 29 30 27 27 25 29 24 28
24 27 25 23 32 31 26 23 24 26 26 35 28 31 30 27 29 25 25 26 27 28
Wind_Direction
344 340 339 346 342 338 335 334 339 339 344 341 334 299 286 257 277 252 228 223 228 227
346 343 342 341 349 348 345 341 342 343 343 342 335 316 309 279 275 240 230 226 225 230
347 349 351 353 353 350 350 352 349 355 339 333 334 327 315 314 279 268 239 231 221 226
352 356 4 358 356 354 352 351 350 346 353 336 325 328 320 311 300 255 290 241 229 222
356 357 1 3 360 358 356 355 355 349 346 343 338 309 306 305 290 282 283 240 251 244
357 1 4 5 7 7 360 358 355 353 348 345 349 330 294 284 288 275 259 242 253 252
357 0 8 14 13 12 4 359 357 357 352 356 351 331 286 239 244 272 287 284 257 260
359 7 14 15 12 11 7 2 358 360 1 9 19 21 128 182 219 210 326 286 285 273
4 8 15 16 14 12 8 8 6 5 4 19 32 44 51 44 50 52 19 347 320 293
7 8 10 15 16 12 10 9 10 10 11 15 37 40 47 52 56 53 47 37 31 26
7 8 7 12 15 12 15 17 13 13 18 15 33 39 40 41 39 39 46 47 46 43
8 14 10 8 9 8 17 19 19 18 25 17 21 41 39 40 35 35 32 33 59 57
10 14 14 18 17 25 22 20 21 24 30 26 21 33 41 37 37 35 31 31 38 47
13 17 18 22 26 29 27 18 24 25 24 33 29 30 38 41 40 36 37 34 27 34
Height
781 773 766 759 750 742 735 727 720 716 711 707 704 703 702 702 702 703 704 706 709 711
781 774 766 758 751 743 735 727 720 715 711 707 705 702 700 700 699 698 700 702 704 706
782 775 767 760 752 744 737 728 721 714 710 706 703 701 699 698 696 696 696 698 700 702
783 776 769 762 754 747 739 730 722 715 709 703 701 698 697 696 695 695 695 696 697 698
785 778 771 764 756 749 741 732 724 715 708 702 697 695 694 694 694 694 694 694 696 696
787 780 773 766 759 752 744 735 726 716 707 700 695 692 692 692 692 692 692 693 694 695
789 783 776 769 762 755 747 739 728 719 709 700 692 686 685 688 690 691 692 692 693 694
793 787 780 772 765 758 751 743 734 724 713 703 693 681 682 687 689 690 691 692 692 692
796 789 783 776 769 762 756 748 739 729 719 712 703 696 691 693 692 693 693 692 691 690
799 792 786 780 774 766 759 753 745 737 727 719 715 708 704 701 699 698 696 693 690 689
802 796 790 784 777 770 765 759 752 744 737 730 724 719 714 710 706 704 702 698 695 691
805 799 794 786 780 775 770 765 760 753 745 738 732 727 723 718 714 710 705 702 700 697
809 804 798 792 785 781 775 770 765 760 753 747 740 735 731 726 722 718 714 711 706 704
812 807 802 797 792 786 779 775 770 765 760 755 748 743 738 734 730 727 723 720 715 711